Malaga, Spain

6:07 PM CEST on July 24, 2017 (GMT +0200)
Malaga

Weather History for LEMG - January, 2013

Change the Weather History Date:

Sunday, January 20, 2013

  Actual Average Record
Temperature  
Mean Temperature 54 °F -  
Max Temperature 61 °F 60 °F 69 °F (2007)
Min Temperature 48 °F 44 °F 35 °F (1999)
Degree Days  
Heating Degree Days 10    
Growing Degree Days 4 (Base 50)    
Moisture  
Dew Point 39 °F    
Average Humidity 59    
Maximum Humidity 93    
Minimum Humidity 37    
Precipitation  
Precipitation 0.00 in 0.10 in - ()
Sea Level Pressure  
Sea Level Pressure 29.76 in    
Wind  
Wind Speed 13 mph ()    
Max Wind Speed 20 mph    
Max Gust Speed 34 mph    
Visibility 6.7 miles    
Events      
Averages and records for this station are not official NWS values.
T = Trace of Precipitation, MM = Missing Value Source: Averaged Metar Reports

Daily Weather History Graph

Daily Weather History Graph

Search for Another Location

Airport or City:

Trip Planner

Search our weather history database for the weather conditions in past years. The results will help you decide how hot, cold, wet, or windy it might be!

Date:

Astronomy

Jan. 20, 2013 Rise Set
Actual Time 8:27 AM CET 6:30 PM CET
Civil Twilight 7:59 AM CET 6:58 PM CET
Nautical Twilight 7:28 AM CET 7:30 PM CET
Astronomical Twilight 6:57 AM CET 8:01 PM CET
Moon 1:22 PM CET (1/20) 2:47 AM CET (1/20)
Length of Visible Light 10h 59m
Length of Day
10h 03m
Waxing Gibbous, 64% of the Moon is Illuminated
Jan 20
Waxing Gibbous
Jan 27
Full
Feb 3
Last Quarter
Feb 10
New
Feb 17
First Quarter

Hourly Weather History & Observations

Time (CET) Temp. Dew Point Humidity Pressure Visibility Wind Dir Wind Speed Gust Speed Precip Events Conditions
12:00 AM 53.6 °F 35.6 °F 51% 29.50 in 6.2 mi WNW 19.6 mph 34.5 mph N/A   Partly Cloudy
12:30 AM 53.6 °F 35.6 °F 51% 29.53 in 6.2 mi West 18.4 mph 31.1 mph N/A   Partly Cloudy
1:00 AM 53 °F 37 °F 43% 29.56 in 12 mi WNW 17.3 mph - -   Scattered Clouds
1:00 AM 51.8 °F 37.4 °F 58% 29.53 in 6.2 mi WNW 17.3 mph - N/A   Partly Cloudy
1:30 AM 51.8 °F 37.4 °F 58% 29.56 in 6.2 mi WNW 15.0 mph 27.6 mph N/A   Partly Cloudy
2:00 AM 51.8 °F 35.6 °F 54% 29.56 in 6.2 mi WNW 17.3 mph 32.2 mph N/A   Partly Cloudy
2:30 AM 51.8 °F 35.6 °F 54% 29.59 in 6.2 mi WNW 17.3 mph 29.9 mph N/A   Partly Cloudy
3:00 AM 50.0 °F 37.4 °F 62% 29.59 in 6.2 mi WNW 16.1 mph - N/A   Partly Cloudy
3:30 AM 50.0 °F 35.6 °F 58% 29.62 in 6.2 mi WNW 16.1 mph 27.6 mph N/A   Partly Cloudy
4:00 AM 50.0 °F 37.4 °F 62% 29.65 in 6.2 mi NW 13.8 mph 25.3 mph N/A   Scattered Clouds
4:30 AM 50.0 °F 37.4 °F 62% 29.65 in 6.2 mi WNW 13.8 mph - N/A   Scattered Clouds
5:00 AM 50.0 °F 35.6 °F 58% 29.65 in 6.2 mi WNW 12.7 mph 24.2 mph N/A   Partly Cloudy
5:30 AM 50.0 °F 35.6 °F 58% 29.68 in 6.2 mi WNW 13.8 mph - N/A   Partly Cloudy
6:00 AM 50.0 °F 35.6 °F 58% 29.68 in 6.2 mi WNW 15.0 mph - N/A   Partly Cloudy
6:30 AM 50.0 °F 35.6 °F 58% 29.68 in 6.2 mi WNW 15.0 mph - N/A   Partly Cloudy
7:00 AM 50 °F 36 °F 48% 29.72 in 12 mi WNW 15.0 mph - -   Scattered Clouds
7:00 AM 48.2 °F 37.4 °F 66% 29.71 in 6.2 mi WNW 15.0 mph 26.5 mph N/A   Partly Cloudy
7:30 AM 50.0 °F 37.4 °F 62% 29.71 in 6.2 mi WNW 16.1 mph 28.8 mph N/A   Partly Cloudy
8:00 AM 50.0 °F 37.4 °F 62% 29.71 in 6.2 mi WNW 16.1 mph - N/A   Partly Cloudy
8:30 AM 50.0 °F 37.4 °F 62% 29.74 in 6.2 mi WNW 15.0 mph 27.6 mph N/A   Partly Cloudy
9:00 AM 50.0 °F 37.4 °F 62% 29.77 in 6.2 mi WNW 8.1 mph - N/A   Partly Cloudy
9:30 AM 50.0 °F 37.4 °F 62% 29.77 in 6.2 mi WNW 8.1 mph - N/A   Partly Cloudy
10:00 AM 51.8 °F 37.4 °F 58% 29.80 in 6.2 mi WNW 12.7 mph - N/A   Partly Cloudy
10:30 AM 53.6 °F 39.2 °F 58% 29.83 in 6.2 mi WNW 12.7 mph 24.2 mph N/A   Partly Cloudy
11:00 AM 53.6 °F 39.2 °F 58% 29.83 in 6.2 mi WNW 18.4 mph - N/A   Partly Cloudy
11:30 AM 55.4 °F 39.2 °F 54% 29.86 in 6.2 mi WNW 17.3 mph 28.8 mph N/A   Partly Cloudy
12:00 PM 55.4 °F 39.2 °F 54% 29.86 in 6.2 mi WNW 15.0 mph 27.6 mph N/A   Partly Cloudy
12:30 PM 55.4 °F 39.2 °F 54% 29.86 in 6.2 mi WNW 17.3 mph 28.8 mph N/A   Scattered Clouds
1:00 PM 58 °F 39 °F 37% 29.86 in 25 mi WNW 16.1 mph - -   Partly Cloudy
1:00 PM 57.2 °F 39.2 °F 51% 29.86 in 6.2 mi WNW 16.1 mph 27.6 mph N/A   Scattered Clouds
1:30 PM 55.4 °F 39.2 °F 54% 29.83 in 6.2 mi WNW 15.0 mph 26.5 mph N/A   Scattered Clouds
2:00 PM 59.0 °F 37.4 °F 45% 29.83 in 6.2 mi WNW 15.0 mph 26.5 mph N/A   Scattered Clouds
2:30 PM 59.0 °F 39.2 °F 48% 29.83 in 6.2 mi WNW 16.1 mph - N/A   Partly Cloudy
3:00 PM 57.2 °F 39.2 °F 51% 29.83 in 6.2 mi WNW 11.5 mph 24.2 mph N/A   Partly Cloudy
3:30 PM 59.0 °F 39.2 °F 48% 29.86 in 6.2 mi WNW 12.7 mph 24.2 mph N/A   Scattered Clouds
4:00 PM 57.2 °F 41.0 °F 55% 29.86 in 6.2 mi WNW 16.1 mph - N/A   Scattered Clouds
4:30 PM 57.2 °F 41.0 °F 55% 29.86 in 6.2 mi NW 16.1 mph 29.9 mph N/A   Scattered Clouds
5:00 PM 55.4 °F 42.8 °F 63% 29.86 in 6.2 mi WNW 10.4 mph - N/A   Scattered Clouds
5:30 PM 55.4 °F 41.0 °F 58% 29.86 in 6.2 mi NW 10.4 mph - N/A   Scattered Clouds
6:00 PM 55.4 °F 41.0 °F 58% 29.86 in 6.2 mi NW 8.1 mph - N/A   Scattered Clouds
6:30 PM 55.4 °F 41.0 °F 58% 29.86 in 6.2 mi NNW 5.8 mph - N/A   Scattered Clouds
7:00 PM 56 °F 41 °F 46% 29.87 in 19 mi 2.3 mph - -   Mostly Cloudy
7:00 PM 55.4 °F 42.8 °F 63% 29.86 in 6.2 mi Variable 2.3 mph - N/A   Scattered Clouds
7:30 PM 53.6 °F 42.8 °F 67% 29.86 in 6.2 mi Calm Calm - N/A   Scattered Clouds
8:00 PM 55.4 °F 42.8 °F 63% 29.86 in 6.2 mi Variable 1.2 mph - N/A   Scattered Clouds
8:30 PM 51.8 °F 42.8 °F 71% 29.86 in 6.2 mi Calm Calm - N/A   Scattered Clouds
9:00 PM 51.8 °F 42.8 °F 71% 29.86 in 6.2 mi Variable 1.2 mph - N/A   Scattered Clouds
9:30 PM 51.8 °F 44.6 °F 76% 29.86 in 6.2 mi Calm Calm - N/A   Scattered Clouds
10:00 PM 51.8 °F 46.4 °F 82% 29.83 in 6.2 mi Variable 2.3 mph - N/A   Scattered Clouds
10:30 PM 51.8 °F 46.4 °F 82% 29.83 in 6.2 mi Variable 1.2 mph - N/A   Scattered Clouds
11:00 PM 50.0 °F 46.4 °F 87% 29.83 in 6.2 mi Calm Calm - N/A   Scattered Clouds
11:30 PM 48.2 °F 46.4 °F 93% 29.83 in 6.2 mi Calm Calm - N/A   Scattered Clouds